When you browse on this site, cookies collect data to enhance your experience and personalize the content and advertising you see.
Visit our Privacy Policy to learn more. By continuing to use the site, you agree to this use of cookies and data.
  • în România
  • Lista ţărilor
  • Pe 7 zile
  • Temperatura apei
  • Hartă satelitară
  • Meteo pe hartă
  • Widget-uri
  • user-avatar
    Intrare

    Meteo pe oră la Orlando

    Astăzi, 23 Februarie, Sâmbătă

    Timp Temperatura Precipitaţii Vânt Presiune Umiditate
    00:00 +26°C° 0.2 mm 2 m/s 763 mmHg 77%
    01:00 +26°C° 0.2 mm 2 m/s 763 mmHg 78%
    02:00 +26°C° 0.2 mm 2 m/s 762 mmHg 79%
    03:00 +25°C° 0.2 mm 2 m/s 762 mmHg 80%
    04:00 +25°C° 0.2 mm 2 m/s 762 mmHg 82%
    05:00 +25°C° 0.1 mm 2 m/s 762 mmHg 84%
    06:00 +24°C° 0.1 mm 2 m/s 762 mmHg 86%
    07:00 +24°C° 0.1 mm 2 m/s 762 mmHg 88%
    08:00 +25°C° 0 mm 2 m/s 762 mmHg 79%
    09:00 +27°C° 0 mm 3 m/s 763 mmHg 70%
    10:00 +29°C° 0 mm 3 m/s 763 mmHg 62%
    11:00 +30°C° 0 mm 3 m/s 763 mmHg 57%
    12:00 +32°C° 0 mm 4 m/s 762 mmHg 53%
    13:00 +33°C° 0 mm 4 m/s 762 mmHg 48%
    14:00 +33°C° 0.1 mm 4 m/s 761 mmHg 50%
    15:00 +33°C° 0.1 mm 3 m/s 761 mmHg 51%
    16:00 +31°C° 0.1 mm 3 m/s 761 mmHg 53%
    17:00 +30°C° 0.2 mm 3 m/s 761 mmHg 58%
    18:00 +29°C° 0.2 mm 3 m/s 761 mmHg 63%
    19:00 +28°C° 0.2 mm 3 m/s 761 mmHg 68%
    20:00 +27°C° 0.2 mm 2 m/s 761 mmHg 71%
    21:00 +27°C° 0.2 mm 2 m/s 761 mmHg 74%
    22:00 +26°C° 0.2 mm 2 m/s 762 mmHg 77%
    23:00 +26°C° 0.3 mm 2 m/s 762 mmHg 78%

    Mâine, 24 Februarie, Duminică

    Timp Temperatura Precipitaţii Vânt Presiune Umiditate
    00:00 +26°C° 0.3 mm 2 m/s 762 mmHg 79%
    01:00 +25°C° 0.3 mm 2 m/s 762 mmHg 80%
    02:00 +25°C° 0.2 mm 2 m/s 761 mmHg 82%
    03:00 +25°C° 0.2 mm 2 m/s 761 mmHg 84%
    04:00 +24°C° 0.2 mm 2 m/s 761 mmHg 86%
    05:00 +24°C° 0 mm 2 m/s 761 mmHg 88%
    06:00 +23°C° 0 mm 2 m/s 761 mmHg 89%
    07:00 +22°C° 0 mm 3 m/s 760 mmHg 91%
    08:00 +25°C° 0 mm 3 m/s 761 mmHg 83%
    09:00 +26°C° 0 mm 4 m/s 761 mmHg 75%
    10:00 +28°C° 0 mm 4 m/s 761 mmHg 68%
    11:00 +29°C° 0 mm 5 m/s 761 mmHg 59%
    12:00 +30°C° 0 mm 5 m/s 761 mmHg 51%
    13:00 +33°C° 0 mm 5 m/s 760 mmHg 43%
    14:00 +33°C° 0 mm 6 m/s 760 mmHg 42%
    15:00 +33°C° 0 mm 6 m/s 759 mmHg 41%
    16:00 +33°C° 0 mm 6 m/s 759 mmHg 40%
    17:00 +30°C° 0 mm 5 m/s 759 mmHg 48%
    18:00 +28°C° 0 mm 5 m/s 760 mmHg 56%
    19:00 +26°C° 0 mm 4 m/s 760 mmHg 64%
    20:00 +26°C° 0 mm 4 m/s 761 mmHg 67%
    21:00 +26°C° 0 mm 3 m/s 761 mmHg 70%
    22:00 +25°C° 0 mm 3 m/s 762 mmHg 73%
    23:00 +24°C° 0 mm 3 m/s 762 mmHg 63%

    Poimâine, 25 Februarie, Luni

    Timp Temperatura Precipitaţii Vânt Presiune Umiditate
    00:00 +23°C° 0 mm 4 m/s 762 mmHg 53%
    01:00 +22°C° 0 mm 4 m/s 762 mmHg 43%
    02:00 +21°C° 0 mm 4 m/s 763 mmHg 43%
    03:00 +20°C° 0 mm 5 m/s 763 mmHg 43%
    04:00 +19°C° 0 mm 5 m/s 763 mmHg 42%
    05:00 +19°C° 0 mm 5 m/s 764 mmHg 44%
    06:00 +17°C° 0 mm 5 m/s 764 mmHg 45%
    07:00 +16°C° 0 mm 5 m/s 765 mmHg 46%
    08:00 +16°C° 0 mm 5 m/s 766 mmHg 47%
    09:00 +17°C° 0 mm 6 m/s 766 mmHg 48%
    10:00 +17°C° 0 mm 6 m/s 767 mmHg 48%
    11:00 +19°C° 0 mm 6 m/s 767 mmHg 47%
    12:00 +21°C° 0 mm 6 m/s 767 mmHg 46%
    13:00 +22°C° 0 mm 6 m/s 766 mmHg 44%
    14:00 +22°C° 0 mm 6 m/s 766 mmHg 46%
    15:00 +22°C° 0 mm 6 m/s 766 mmHg 47%
    16:00 +22°C° 0 mm 6 m/s 766 mmHg 48%
    17:00 +21°C° 0 mm 6 m/s 766 mmHg 50%
    18:00 +20°C° 0 mm 5 m/s 766 mmHg 52%
    19:00 +18°C° 0 mm 4 m/s 767 mmHg 55%
    20:00 +18°C° 0 mm 4 m/s 767 mmHg 57%
    21:00 +18°C° 0 mm 4 m/s 767 mmHg 60%
    22:00 +17°C° 0 mm 4 m/s 767 mmHg 63%
    23:00 +17°C° 0 mm 4 m/s 767 mmHg 66%

    26 Februarie, Marţi

    Timp Temperatura Precipitaţii Vânt Presiune Umiditate
    00:00 +17°C° 0 mm 3 m/s 767 mmHg 68%
    01:00 +17°C° 0 mm 3 m/s 767 mmHg 71%
    02:00 +17°C° 0 mm 3 m/s 766 mmHg 73%
    03:00 +17°C° 0 mm 3 m/s 766 mmHg 74%
    04:00 +17°C° 0 mm 3 m/s 766 mmHg 76%
    05:00 +17°C° 0 mm 3 m/s 766 mmHg 76%
    06:00 +18°C° 0 mm 3 m/s 766 mmHg 77%
    07:00 +18°C° 0 mm 3 m/s 767 mmHg 77%
    08:00 +20°C° 0 mm 4 m/s 767 mmHg 71%
    09:00 +21°C° 0 mm 4 m/s 767 mmHg 65%
    10:00 +23°C° 0 mm 5 m/s 768 mmHg 59%
    11:00 +23°C° 0 mm 5 m/s 767 mmHg 59%
    12:00 +25°C° 0 mm 5 m/s 767 mmHg 58%
    13:00 +25°C° 0 mm 4 m/s 767 mmHg 58%
    14:00 +25°C° 0 mm 5 m/s 766 mmHg 60%
    15:00 +23°C° 0 mm 5 m/s 766 mmHg 63%
    16:00 +23°C° 0 mm 5 m/s 765 mmHg 65%
    17:00 +22°C° 0 mm 5 m/s 765 mmHg 68%
    18:00 +22°C° 0 mm 4 m/s 765 mmHg 71%
    19:00 +21°C° 0 mm 4 m/s 765 mmHg 74%
    20:00 +21°C° 0 mm 3 m/s 765 mmHg 76%
    21:00 +21°C° 0 mm 3 m/s 766 mmHg 78%
    22:00 +21°C° 0 mm 3 m/s 766 mmHg 80%
    23:00 +21°C° 0 mm 3 m/s 765 mmHg 82%

    27 Februarie, Miercuri

    Timp Temperatura Precipitaţii Vânt Presiune Umiditate
    00:00 +21°C° 0 mm 3 m/s 765 mmHg 83%
    01:00 +21°C° 0 mm 3 m/s 764 mmHg 85%
    02:00 +21°C° 0.1 mm 3 m/s 764 mmHg 86%
    03:00 +21°C° 0.1 mm 2 m/s 763 mmHg 87%
    04:00 +21°C° 0.1 mm 2 m/s 763 mmHg 87%
    05:00 +21°C° 0 mm 2 m/s 763 mmHg 88%
    06:00 +21°C° 0 mm 2 m/s 763 mmHg 88%
    07:00 +21°C° 0 mm 2 m/s 763 mmHg 88%
    08:00 +23°C° 1.2 mm 2 m/s 763 mmHg 85%
    09:00 +24°C° 1.2 mm 2 m/s 764 mmHg 81%
    10:00 +25°C° 1.2 mm 2 m/s 764 mmHg 78%
    11:00 +26°C° 1.1 mm 3 m/s 763 mmHg 72%
    12:00 +27°C° 1.1 mm 3 m/s 762 mmHg 67%
    13:00 +28°C° 1.1 mm 4 m/s 762 mmHg 62%
    14:00 +28°C° 3.1 mm 3 m/s 761 mmHg 62%
    15:00 +28°C° 3.1 mm 3 m/s 761 mmHg 63%
    16:00 +27°C° 3.1 mm 3 m/s 760 mmHg 64%
    17:00 +26°C° 5.6 mm 2 m/s 760 mmHg 68%
    18:00 +25°C° 5.6 mm 2 m/s 760 mmHg 72%
    19:00 +24°C° 5.6 mm 2 m/s 761 mmHg 77%
    20:00 +24°C° 2.1 mm 1 m/s 760 mmHg 77%
    21:00 +24°C° 2.1 mm 1 m/s 760 mmHg 77%
    22:00 +23°C° 2.1 mm 1 m/s 760 mmHg 77%
    23:00 +23°C° 0 mm 1 m/s 760 mmHg 79%

    28 Februarie, Joi

    Timp Temperatura Precipitaţii Vânt Presiune Umiditate
    00:00 +23°C° 0 mm 2 m/s 760 mmHg 81%
    01:00 +21°C° 0 mm 3 m/s 759 mmHg 82%
    02:00 +21°C° 0 mm 2 m/s 759 mmHg 84%
    03:00 +21°C° 0 mm 2 m/s 758 mmHg 86%
    04:00 +20°C° 0 mm 2 m/s 758 mmHg 88%
    05:00 +20°C° 0 mm 2 m/s 758 mmHg 89%
    06:00 +20°C° 0 mm 2 m/s 759 mmHg 90%
    07:00 +20°C° 0 mm 2 m/s 759 mmHg 91%
    08:00 +21°C° 0 mm 2 m/s 759 mmHg 84%
    09:00 +24°C° 0 mm 2 m/s 760 mmHg 76%
    10:00 +26°C° 0 mm 2 m/s 760 mmHg 68%
    11:00 +27°C° 0 mm 3 m/s 759 mmHg 63%
    12:00 +29°C° 0 mm 3 m/s 759 mmHg 58%
    13:00 +30°C° 0 mm 4 m/s 759 mmHg 52%
    14:00 +30°C° 1.1 mm 4 m/s 758 mmHg 53%
    15:00 +29°C° 1.1 mm 4 m/s 758 mmHg 55%
    16:00 +29°C° 1.1 mm 4 m/s 757 mmHg 56%
    17:00 +28°C° 0.9 mm 3 m/s 758 mmHg 61%
    18:00 +27°C° 0.9 mm 3 m/s 758 mmHg 65%
    19:00 +26°C° 0.9 mm 2 m/s 758 mmHg 70%
    20:00 +25°C° 0 mm 2 m/s 758 mmHg 72%
    21:00 +24°C° 0 mm 2 m/s 758 mmHg 75%
    22:00 +24°C° 0 mm 2 m/s 759 mmHg 77%
    23:00 +23°C° 0 mm 2 m/s 758 mmHg 78%
    Arată mai mult